Regional Weather Roundup
Issued by NWS Newport/Morehead, NC

Current Version | Previous Version | Text Only | Print | Product List | Glossary On
Versions: 1 2 3 4 5 6 7 8 9 10 11 12 13 14 15 16 17 18 19 20 21 22 23 24 25 26 27 28 29 30 31 32 33 34 35 36 37 38 39 40 41 42 43 44 45 46 47 48 49 50
000
ASUS42 KMHX 262213
RWRMHX
WEATHER ROUNDUP FOR EASTERN NORTH CAROLINA
NATIONAL WEATHER SERVICE NEWPORT/MOREHEAD CITY NC
600 PM EDT FRI AUG 26 2016

NOTE: "FAIR" INDICATES FEW OR NO CLOUDS BELOW 12,000 FEET
WITH NO SIGNIFICANT WEATHER AND/OR OBSTRUCTIONS TO VISIBILITY

NCZ015>017-031-032-045>047-102-103-262300-
NORTH COAST

CITY           SKY/WX    TMP DP  RH WIND       PRES   REMARKS
EDENTON        SUNNY     92  71  49 S3        30.04S
ELIZABETH CITY SUNNY     90  72  55 S7        30.04S
KITTY HAWK     CLEAR     90  78  67 S5        30.04S HX 103
MANTEO         SUNNY     84  75  73 S9        30.05S

$$

NCZ045>047-081-094-103-104-262300-
CENTRAL COAST

CITY           SKY/WX    TMP DP  RH WIND       PRES   REMARKS
FRISCO         SUNNY     85  69  58 S3        30.06S

$$

NCZ095-097-098-100-101-262300-
SOUTHERN COAST

CITY           SKY/WX    TMP DP  RH WIND       PRES   REMARKS
BEAUFORT       SUNNY     85  71  63 S5        30.05F
CEDAR ISLAND   NOT AVBL
JACKSONVILLE   SUNNY     86  71  60 S7        30.04F
PINEY ISLAND   NOT AVBL
WILMINGTON     SUNNY     86  71  60 SE6       30.05S


$$

NCZ011>013-027>030-043-044-078>080-089-090>093-098-262300-
COASTAL PLAIN

CITY           SKY/WX    TMP DP  RH WIND       PRES   REMARKS
AHOSKIE        SUNNY     91  75  59 SE3       30.03S HX 101
CLINTON        SUNNY     92  75  55 CALM      30.03S HX 103
ELIZABETHTOWN  SUNNY     92  73  53 CALM      30.03S HX 100
GOLDSBORO      MOSUNNY   95  73  48 SE6       30.01F HX 103
GREENVILLE     PTSUNNY   95  73  49 S6        30.05S HX 105
HAVELOCK       SUNNY     87  73  62 SE7       30.05F
KENANSVILLE    SUNNY     90  73  58 SE3       30.04S
KINSTON        SUNNY     91  72  52 S5        30.04F
NEW BERN       SUNNY     89  72  56 SE5       30.05F
RICHLANDS      SUNNY     89  76  65 SE6       30.04F HX 100
ROCKY MOUNT    SUNNY     93  76  57 CALM      30.03S HX 105
WASHINGTON     SUNNY     90  73  57 SE3       30.03F
WHITEVILLE     SUNNY     90  73  56 E5        30.03S

$$

AMZ130-135-150-152-154-156-158-170-250-252-270-ANZ085-086-088-633-658-670-262300-
MARINE OBSERVATIONS

STATION/POSITION TIME  TEMP    WIND        PRES    WAVE   SWELL
                       AIR SEA DIR/SP/G            HT/PER HT/PER
                 (UTC) (F)     (DEG/KT/KT) (MB)    (FT/S) (FT/S)
CHESAPEAKE LIGHT NOT AVBL
64 E VA BEACH    2150   81 81  210/ 12/ 14 1017.1    2/ 8   2/ 8
DUCK             2100   84 79  140/  9/ 10 1017.0
2 E DUCK         2111      80                N/A     2/ 8
OREGON INLET     2100   83 81  180/  8/ 10 1017.6
13E OREGON INLT  2100      79                N/A     2/ 8   2/ 8
HATTERAS CG      2100   85 82  170/  4/  6 1017.9
DIAMOND BUOY     2150   85 87   CALM  /  2 1018.1    2/ 8   2/ 8
CAPE LOOKOUT     2200   82     120/  5/  6 1017.5
BEAUFORT LAB     2100   85 81  190/  5/  6 1017.3
30 SE NEW RVR IN 2108   83 86  110/  4/  6 1017.8
30 SE NEW RVR IN 2155      85                N/A     2/ 8
27 SE WRIGHTSVLE 2108   83 85   80/  4/  6 1017.8
5 SE WRIGHTSVLE  2108   83 85  130/  4/  8 1018.6
225 S CAPE HAT   2150   83 84   70/ 17/ 19 1016.0    6/10   3/10
41 SE CHARLESTON 2150   83 83   60/ 12/ 16 1016.4    3/ 6   2/ 8

$$



USA.gov is the U.S. government's official web portal to all federal, state and local government web resources and services.